Weather reports worldwide

Advertisment
Norderney, Germany (10113): temperature & dewpoint: 16.09.2018 15:00:00 - 22.09.2018 15:00:00 (CEST)Norderney, Germany (10113): temperature 5cm & temperature -5cm: 16.09.2018 15:00:00 - 22.09.2018 15:00:00 (CEST)Norderney, Germany (10113): temperature -20cm & temperature -100cm: 16.09.2018 15:00:00 - 22.09.2018 15:00:00 (CEST)Norderney, Germany (10113): wind speed & gusts: 16.09.2018 15:00:00 - 22.09.2018 15:00:00 (CEST)Norderney, Germany (10113): wind direction: 16.09.2018 15:00:00 - 22.09.2018 15:00:00 (CEST)Norderney, Germany (10113): reduced air pressure: 16.09.2018 15:00:00 - 22.09.2018 15:00:00 (CEST)Norderney, Germany (10113): visibility: 16.09.2018 15:00:00 - 22.09.2018 15:00:00 (CEST)Norderney, Germany (10113): sunshine duration: 16.09.2018 15:00:00 - 22.09.2018 15:00:00 (CEST)Norderney, Germany (10113): precipitation: 16.09.2018 15:00:00 - 22.09.2018 15:00:00 (CEST)
Date & Time tt [°C] td [°C] tt 5cm [°C] tt -5cm [°C] tt -20cm [°C] tt -100cm [°C] ff [km/h] ff [kn] fx [km/h] fx [kn] dd ppp [hPa] vv [km] sd [min] rr [mm]
22.09.2018 15:00:00 13,3 8,9 13,4 14,0 14,5 17,3 27 14 53 29 SW 1015,4 40 0 0,0
22.09.2018 14:00:00 14,7 7,2 14,9 14,5 14,3 17,3 39 21 61 33 W 1015,2 19 8 0,0
22.09.2018 13:00:00 14,9 7,2 14,9 14,5 14,1 17,3 35 19 59 32 WSW 1014,7 35 14 0,4
22.09.2018 12:00:00 12,7 9,8 11,5 13,8 14,0 17,4 31 17 62 34 WSW 1014,9 8 16 0,2
22.09.2018 11:00:00 14,5 9,0 14,6 13,2 13,8 17,4 39 21 61 33 W 1014,5 12 17 0,2
22.09.2018 10:00:00 13,5 9,9 12,6 12,4 13,8 17,4 31 17 52 28 WSW 1014,2 24 11 0,4
22.09.2018 09:00:00 13,8 8,9 13,7 11,8 13,8 17,4 25 14 48 26 WSW 1013,7 16 13 0,0
22.09.2018 08:00:00 13,3 9,1 10,9 11,5 13,9 17,4 37 20 56 30 W 1013,6 12 0 0,4
22.09.2018 07:00:00 14,1 7,3 12,7 11,3 14,1 17,4 31 17 50 27 W 1013,2 21 0 0,0
22.09.2018 06:00:00 14,1 7,5 12,9 11,3 14,3 17,4 34 19 55 30 W 1012,9 18 0 0,0
22.09.2018 05:00:00 14,2 7,3 12,6 11,5 14,5 17,4 42 23 53 28 W 1012,4 20 0 0,0
22.09.2018 04:00:00 14,0 6,9 11,6 11,9 14,7 17,4 42 23 53 29 W 1011,6 23 0 0,1
22.09.2018 03:00:00 14,1 8,7 11,4 12,0 14,9 17,4 37 20 70 38 WNW 1010,6 24 0 2,4
22.09.2018 02:00:00 14,0 8,5 11,2 12,2 15,1 17,4 27 14 44 24 W 1009,8 19 0 0,7
22.09.2018 01:00:00 11,7 9,4 10,3 12,5 15,4 17,4 15 8 38 20 WSW 1008,9 20 0 3,5
22.09.2018 00:00:00 12,0 9,8 10,9 12,7 15,7 17,4 21 11 44 24 SSW 1008,1 23 0 0,1
21.09.2018 23:00:00 11,4 9,9 10,4 12,8 16,0 17,4 32 17 53 28 SW 1007,8 5 0 1,1
21.09.2018 22:00:00 12,4 9,0 10,7 12,8 16,4 17,4 19 11 55 30 SW 1007,1 30 0 3,8
21.09.2018 21:00:00 12,2 8,8 10,6 13,2 16,8 17,4 32 18 81 44 SW 1006,6 20 0 0,4
21.09.2018 20:00:00 13,0 7,2 11,7 13,9 17,3 17,4 31 17 71 38 SW 1005,3 25 0 0,0
21.09.2018 19:00:00 12,7 6,8 10,6 14,8 17,7 17,4 41 22 68 37 SW 1004,9 11 9 0,0
21.09.2018 18:00:00 13,7 8,2 12,6 16,1 18,0 17,4 30 16 74 40 WSW 1005,2 18 18 0,4
21.09.2018 17:00:00 10,9 7,3 8,4 18,8 18,1 17,4 54 29 81 44 W 1005,1 4,9 37 1,9
21.09.2018 16:00:00 15,0 7,5 16,6 18,9 18,0 17,4 42 23 66 36 WSW 1003,7 29 39 0,1
21.09.2018 15:00:00 15,2 8,8 16,8 19,1 17,8 17,4 35 19 69 37 WSW 1002,9 27 32 0,0
21.09.2018 14:00:00 15,5 7,8 17,3 18,3 17,7 17,4 39 21 70 38 WSW 1002,0 21 23 0,0
21.09.2018 13:00:00 14,4 8,6 14,7 18,2 17,6 17,4 43 23 69 37 WSW 1001,1 21 49 0,0
21.09.2018 12:00:00 15,7 9,9 16,5 17,2 17,6 17,4 42 23 65 35 WSW 1000,0 19 37 0,0
21.09.2018 11:00:00 15,6 11,4 15,0 16,7 17,7 17,4 40 22 68 37 W 999,0 15 0 0,0
21.09.2018 10:00:00 16,0 12,2 14,3 17,2 17,8 17,4 39 21 86 47 SW 997,8 23 0 0,4
21.09.2018 09:00:00 19,2 13,6 18,1 17,3 17,9 17,4 32 17 59 32 S 996,0 25 0 0,1
21.09.2018 08:00:00 19,3 13,4 18,9 17,5 17,9 17,4 39 21 61 33 S 996,5 40 0 0,0
21.09.2018 07:00:00 19,0 13,5 18,4 17,4 18,0 17,4 29 16 45 24 S 997,7 46 0 0,0
21.09.2018 06:00:00 18,8 13,3 18,2 17,5 18,0 17,4 24 13 41 22 S 999,1 45 0 0,0
21.09.2018 05:00:00 18,8 13,2 18,2 17,4 18,1 17,4 26 14 45 24 S 1000,7 46 0 0,0
21.09.2018 04:00:00 18,5 13,1 17,9 17,4 18,2 17,4 26 14 42 23 S 1002,0 40 0 0,0
21.09.2018 03:00:00 18,6 13,2 18,0 17,3 18,3 17,4 23 12 36 19 S 1003,4 38 0 0,0
21.09.2018 02:00:00 18,2 13,2 17,3 17,5 18,5 17,4 20 11 36 20 S 1004,8 44 0 0,0
21.09.2018 01:00:00 18,6 13,4 17,8 17,6 18,6 17,4 18 10 35 19 S 1005,7 44 0 0,0
21.09.2018 00:00:00 18,5 13,4 17,6 17,7 18,8 17,4 19 10 30 16 S 1006,9 41 0 0,0
20.09.2018 23:00:00 18,4 13,6 17,3 18,0 19,0 17,4 18 10 27 14 S 1008,0 35 0 0,0
20.09.2018 22:00:00 18,1 14,1 17,0 18,3 19,3 17,4 16 9 24 13 S 1009,0 36 0 0,0
20.09.2018 21:00:00 18,2 14,9 16,9 18,9 19,5 17,3 12 7 19 11 S 1009,9 32 0 0,0
20.09.2018 20:00:00 19,0 14,7 17,7 19,8 19,6 17,3 14 8 29 16 SW 1010,6 29 0 0,0
20.09.2018 19:00:00 19,3 15,0 18,9 20,5 19,7 17,3 16 9 34 18 SSW 1011,1 27 0 0,0
20.09.2018 18:00:00 19,9 14,5 20,1 21,3 19,7 17,3 22 12 39 21 SSW 1011,8 30 13 0,0
20.09.2018 17:00:00 20,0 14,5 20,5 21,6 19,5 17,3 23 12 45 24 SSW 1012,2 38 14 0,0
20.09.2018 16:00:00 20,0 14,5 20,0 21,6 19,4 17,3 23 13 40 22 SW 1012,6 39 4 0,0
20.09.2018 15:00:00 20,2 14,7 21,2 21,8 19,1 17,3 26 14 41 22 SW 1012,6 37 3 0,0
20.09.2018 14:00:00 20,3 15,6 21,7 21,1 18,9 17,3 21 11 35 19 SSW 1013,0 32 1 0,0
20.09.2018 13:00:00 19,4 15,2 20,5 21,4 18,5 17,3 22 12 39 21 SSW 1013,1 34 14 0,0
20.09.2018 12:00:00 19,5 15,3 22,6 20,1 18,2 17,3 23 13 40 22 SSW 1013,5 24 35 0,0
20.09.2018 11:00:00 18,0 15,2 18,6 18,8 18,1 17,3 23 12 40 22 SSW 1013,8 24 2 0,0
20.09.2018 10:00:00 17,7 15,0 18,2 18,5 18,0 17,3 19 11 33 18 SSW 1013,7 28 17 0,0
20.09.2018 09:00:00 17,6 15,0 18,0 17,6 18,0 17,3 21 11 37 20 SSW 1013,6 29 0 0,0
20.09.2018 08:00:00 17,2 14,9 17,1 17,4 18,0 17,3 18 10 34 19 SSW 1013,8 28 0 0,0
20.09.2018 07:00:00 17,2 15,2 16,9 17,2 18,1 17,2 16 9 35 19 SSW 1013,8 28 0 0,0
20.09.2018 06:00:00 17,8 14,9 17,4 17,4 18,3 17,2 22 12 36 19 SSW 1013,8 33 0 0,0
20.09.2018 05:00:00 17,8 14,8 16,8 17,3 18,4 17,2 22 12 37 20 SSW 1013,9 33 0 0,0
20.09.2018 04:00:00 18,0 14,8 17,0 17,6 18,6 17,2 22 12 39 21 SSW 1013,8 36 0 0,0
20.09.2018 03:00:00 18,3 14,7 17,4 17,8 18,8 17,2 22 12 41 22 SSW 1013,8 37 0 0,0
20.09.2018 02:00:00 18,6 14,9 17,8 18,1 18,9 17,2 26 14 48 26 SW 1013,8 32 0 0,0
20.09.2018 01:00:00 18,8 14,6 18,0 18,3 19,1 17,2 28 15 46 25 SW 1013,9 34 0 0,0
20.09.2018 00:00:00 18,9 14,7 18,1 18,5 19,4 17,2 27 14 45 24 SW 1014,0 36 0 0,0
19.09.2018 23:00:00 19,2 14,5 18,3 18,9 19,6 17,2 29 16 46 25 SW 1014,0 39 0 0,0
19.09.2018 22:00:00 19,9 14,3 18,9 19,3 19,9 17,2 31 17 45 25 SW 1014,0 43 0 0,0
19.09.2018 21:00:00 19,9 14,4 18,8 19,9 20,2 17,2 24 13 41 22 SSW 1013,8 41 0 0,0
19.09.2018 20:00:00 19,7 14,6 18,7 20,8 20,4 17,2 19 10 37 20 SSW 1013,6 36 12 0,0
19.09.2018 19:00:00 20,6 14,3 19,9 22,2 20,5 17,2 24 13 48 26 SSW 1013,2 42 60 0,0
19.09.2018 18:00:00 21,1 14,6 21,6 23,6 20,3 17,2 21 11 44 24 SSW 1013,3 36 52 0,0
19.09.2018 17:00:00 21,1 15,0 22,7 24,2 20,0 17,2 20 11 40 22 SSW 1013,4 40 51 0,0
19.09.2018 16:00:00 21,4 15,1 23,4 24,7 19,5 17,1 24 13 44 24 SW 1013,5 34 46 0,0
19.09.2018 15:00:00 21,7 15,3 24,4 24,3 18,9 17,1 27 15 41 22 SW 1013,4 25 58 0,0
19.09.2018 14:00:00 21,8 15,6 24,9 22,9 18,3 17,1 25 13 42 23 SSW 1013,4 28 42 0,0
19.09.2018 13:00:00 21,9 15,2 24,3 21,5 17,7 17,1 27 15 43 23 S 1013,2 41 49 0,0
19.09.2018 12:00:00 19,3 14,9 21,2 19,2 17,4 17,1 16 9 32 18 S 1014,1 42 14 0,0
19.09.2018 11:00:00 18,0 14,0 18,7 18,2 17,2 17,1 23 12 41 22 S 1014,7 46 10 0,0
19.09.2018 10:00:00 17,1 13,9 17,5 17,0 17,2 17,1 19 10 38 20 S 1014,8 41 1 0,0
19.09.2018 09:00:00 16,4 14,2 16,4 16,2 17,2 17,1 20 11 39 21 SSW 1014,5 35 21 0,0
19.09.2018 08:00:00 16,2 14,3 15,5 15,8 17,4 17,1 22 12 39 21 SSW 1014,3 33 6 0,0
19.09.2018 07:00:00 15,8 14,2 15,0 16,0 17,5 17,1 22 12 38 20 SSW 1014,2 29 0 0,0
19.09.2018 06:00:00 16,2 14,7 15,2 16,2 17,7 17,0 18 10 31 17 S 1014,1 25 0 0,0
19.09.2018 05:00:00 16,9 15,0 15,7 16,4 17,9 17,0 21 11 37 20 SW 1014,3 27 0 0,0
19.09.2018 04:00:00 16,6 15,2 15,5 16,6 18,1 17,0 18 10 31 17 SSW 1014,1 21 0 0,0
19.09.2018 03:00:00 16,5 15,1 15,6 16,8 18,3 17,0 18 10 31 17 SSW 1014,0 20 0 0,0
19.09.2018 02:00:00 16,8 15,1 15,7 17,1 18,6 17,0 21 11 35 19 SW 1013,7 20 0 0,0
19.09.2018 01:00:00 16,9 14,7 15,8 17,4 18,9 17,0 20 11 36 19 SSW 1013,4 22 0 0,0
19.09.2018 00:00:00 17,2 14,7 16,3 17,8 19,2 17,0 24 13 39 21 SW 1013,1 22 0 0,0
18.09.2018 23:00:00 17,5 14,7 16,4 18,4 19,5 17,0 21 12 42 23 SW 1013,0 21 0 0,0
18.09.2018 22:00:00 18,0 14,4 17,0 19,0 19,9 17,0 25 14 42 23 SW 1013,1 24 0 0,0
18.09.2018 21:00:00 18,7 14,1 17,7 19,9 20,2 17,0 26 14 51 28 SW 1012,6 25 0 0,0
18.09.2018 20:00:00 19,4 14,2 18,4 21,1 20,5 17,0 31 17 53 28 WSW 1011,9 24 13 0,0
18.09.2018 19:00:00 20,0 15,1 19,5 22,7 20,6 17,0 22 12 43 23 WSW 1011,0 25 60 0,0
18.09.2018 18:00:00 21,3 15,3 21,8 24,5 20,5 17,0 23 13 39 21 WSW 1010,5 33 60 0,0
18.09.2018 17:00:00 21,8 15,7 23,8 25,4 20,1 17,0 21 11 44 24 WSW 1010,0 31 60 0,0
18.09.2018 16:00:00 22,5 15,2 24,7 25,8 19,5 17,0 30 16 51 28 WSW 1009,7 48 59 0,0
18.09.2018 15:00:00 23,1 15,6 26,7 25,7 18,7 17,0 18 10 36 20 SW 1009,3 36 60 0,0
18.09.2018 14:00:00 24,2 15,2 27,2 24,5 17,9 17,0 24 13 36 20 SSW 1008,8 52 60 0,0
18.09.2018 13:00:00 24,1 14,1 26,9 22,4 17,1 17,0 24 13 42 23 S 1008,9 62 59 0,0
18.09.2018 12:00:00 22,9 13,6 25,3 20,6 16,5 17,0 21 11 35 19 S 1008,8 49 60 0,0
18.09.2018 11:00:00 20,6 12,6 22,7 18,1 16,0 17,0 23 13 37 20 S 1009,0 43 60 0,0
18.09.2018 10:00:00 18,2 11,5 19,7 16,0 15,9 17,0 21 12 33 18 S 1009,6 42 60 0,0
18.09.2018 09:00:00 16,5 10,4 17,0 14,5 15,9 16,9 21 12 34 19 SSE 1010,1 43 60 0,0
18.09.2018 08:00:00 15,2 9,8 14,0 14,0 16,1 16,9 19 10 30 16 SSE 1010,3 40 26 0,0
18.09.2018 07:00:00 15,0 9,4 13,6 14,1 16,3 16,9 18 10 28 15 SSE 1010,5 33 0 0,0
18.09.2018 06:00:00 15,3 9,5 13,8 14,3 16,5 16,9 19 10 27 15 SSE 1011,1 32 0 0,0
18.09.2018 05:00:00 15,5 9,9 14,0 14,5 16,8 16,9 16 9 27 15 SSE 1011,6 30 0 0,0
18.09.2018 04:00:00 16,3 9,9 14,6 14,8 17,0 16,9 15 8 26 14 SSE 1012,2 28 0 0,0
18.09.2018 03:00:00 16,4 9,7 14,9 14,9 17,3 16,9 18 10 26 14 SSE 1012,7 30 0 0,0
18.09.2018 02:00:00 16,7 9,9 14,7 15,2 17,6 16,9 16 9 25 14 SSE 1013,3 43 0 0,0
18.09.2018 01:00:00 16,0 11,7 14,2 15,8 18,0 16,9 14 7 19 10 SSE 1013,9 40 0 0,0
18.09.2018 00:00:00 16,1 13,2 13,6 16,4 18,4 16,9 11 6 21 11 SSE 1014,5 35 0 0,0
17.09.2018 23:00:00 15,9 14,9 14,5 17,1 18,7 16,9 11 6 17 9 SE 1015,1 14 0 0,0
17.09.2018 22:00:00 16,6 15,7 15,3 17,9 19,1 16,9 10 6 16 9 ESE 1015,5 11 0 0,0
17.09.2018 21:00:00 17,0 15,7 15,6 18,8 19,5 16,9 9 5 11 6 SE 1015,9 15 0 0,0
17.09.2018 20:00:00 17,5 15,4 16,1 20,2 19,7 16,9 6 3 9 5 SE 1015,9 18 26 0,0
17.09.2018 19:00:00 18,2 15,6 18,1 21,9 19,8 16,9 5 3 14 7 W 1016,0 19 60 0,0
17.09.2018 18:00:00 18,5 15,7 20,0 23,6 19,6 16,9 11 6 19 10 W 1016,3 22 60 0,0
17.09.2018 17:00:00 19,0 15,9 21,5 24,5 19,2 16,9 13 7 22 12 W 1016,9 27 58 0,0
17.09.2018 16:00:00 20,5 15,9 23,5 25,2 18,5 16,9 14 8 21 11 SW 1017,2 26 59 0,0
17.09.2018 15:00:00 20,4 15,7 24,5 24,5 17,8 16,9 14 7 21 11 SW 1017,4 25 60 0,0
17.09.2018 14:00:00 19,8 15,2 23,8 23,0 17,0 16,9 16 8 27 14 SW 1017,6 29 60 0,0
17.09.2018 13:00:00 18,6 14,6 22,2 20,9 16,3 16,9 17 9 29 16 SSW 1017,9 25 60 0,0
17.09.2018 12:00:00 17,8 14,2 20,6 19,1 15,8 16,9 16 9 29 16 SSW 1018,0 25 60 0,0
17.09.2018 11:00:00 16,4 13,0 18,9 17,1 15,5 16,9 20 11 29 16 S 1017,9 33 60 0,0
17.09.2018 10:00:00 15,6 12,7 16,4 15,5 15,3 16,9 16 9 27 14 S 1018,0 31 54 0,0
17.09.2018 09:00:00 15,8 12,9 16,7 14,4 15,3 16,9 16 8 25 14 S 1017,9 32 30 0,0
17.09.2018 08:00:00 14,9 12,6 14,2 13,8 15,4 16,9 15 8 26 14 S 1017,6 26 0 0,0
17.09.2018 07:00:00 15,1 12,7 14,0 13,8 15,5 16,9 14 8 24 13 S 1017,2 28 0 0,0
17.09.2018 06:00:00 15,6 12,7 14,3 13,9 15,7 16,9 13 7 22 12 SSW 1017,3 35 0 0,0
17.09.2018 05:00:00 15,4 12,8 14,2 14,0 15,8 16,9 13 7 22 12 SSW 1017,2 34 0 0,0
17.09.2018 04:00:00 14,9 12,7 13,7 14,2 16,0 16,9 15 8 22 12 S 1017,3 33 0 0,0
17.09.2018 03:00:00 15,3 12,5 14,0 14,6 16,2 16,9 16 9 24 13 S 1017,2 35 0 0,0
17.09.2018 02:00:00 16,0 12,5 15,3 14,9 16,4 16,9 14 7 24 13 SSW 1017,9 45 0 0,0
17.09.2018 01:00:00 16,0 12,5 15,0 14,8 16,6 16,9 14 8 25 13 SSW 1018,1 50 0 0,0
17.09.2018 00:00:00 15,7 12,5 14,3 15,1 16,8 16,9 12 6 21 11 S 1018,5 52 0 0,0
16.09.2018 23:00:00 16,3 13,5 14,7 15,5 17,1 16,9 10 5 23 13 SSW 1018,7 46 0 0,0
16.09.2018 22:00:00 17,5 13,2 15,8 16,1 17,4 17,0 13 7 23 12 SW 1018,8 49 0 0,0
16.09.2018 21:00:00 17,7 13,4 16,3 16,8 17,6 17,0 14 7 24 13 SSW 1018,6 54 0 0,0
16.09.2018 20:00:00 18,0 13,0 16,9 17,8 17,8 17,0 14 8 23 12 SSW 1018,5 59 29 0,0
16.09.2018 19:00:00 19,0 13,0 18,6 18,8 17,8 17,0 14 8 32 17 SW 1018,6 51 19 0,0
16.09.2018 18:00:00 19,1 12,9 19,2 19,9 17,7 17,0 16 9 28 15 SSW 1018,3 56 15 0,0
16.09.2018 17:00:00 19,1 12,3 19,6 20,2 17,5 17,0 18 10 33 18 SW 1018,5 47 10 0,0
16.09.2018 16:00:00 19,1 13,2 20,1 20,7 17,1 17,0 17 9 31 17 SSW 1019,2 43 19 0,0
16.09.2018 15:00:00 18,8 12,7 20,8 20,2 16,6 17,0 18 10 34 18 SSW 1019,6 52 30 0,0

tt = temperature
td = dewpoint
tt 5cm = temperature 5cm
tt -5cm = temperature -5cm
tt -20cm = temperature -20cm
tt -100cm = temperature -100cm
ff = wind speed
fx = gusts
dd = wind direction
ppp = reduced air pressure
vv = visibility
sd = sunshine duration
rr = precipitation

Next stations